Weather History for Glasgow, MT

Change the Weather History Date:

Wednesday, June 26, 2013

  Actual Average Record
Temperature  
Mean Temperature 69 °F 67 °F  
Max Temperature 79 °F 80 °F 108 °F (1988)
Min Temperature 59 °F 54 °F 40 °F (1904)
Degree Days  
Heating Degree Days 0 2  
Month to date heating degree days 84 99  
Since 1 June heating degree days 84 99  
Since 1 July heating degree days 8578 8430  
Cooling Degree Days 4 4  
Month to date cooling degree days 28 59  
Year to date cooling degree days 37 76  
Since 1 June cooling degree days 28 59  
Growing Degree Days 20 (Base 50)    
Moisture  
Dew Point 52 °F    
Average Humidity 63    
Maximum Humidity 90    
Minimum Humidity 35    
Precipitation  
Precipitation T in 0.07 in 0.78 in (1915)
Month to date precipitation 4.19 2.07  
Year to date precipitation 11.46 5.89  
Snow  
Snow 0.00 in 0.00 in 0.00 in (2002)
Month to date snowfall 0.0 0.0  
Since 1 June snowfall 0.0 0.0  
Since 1 July snowfall 62.3 34.8  
Snow Depth 0.00 in    
Sea Level Pressure  
Sea Level Pressure 29.84 in    
Wind  
Wind Speed 10 mph (WNW)    
Max Wind Speed 26 mph    
Max Gust Speed 32 mph    
Visibility 10 miles    
Events      
T = Trace of Precipitation, MM = Missing Value Source: NWS Daily Summary

Daily Weather History Graph

Daily Weather History Graph

Search for Another Location

Airport:

Trip Planner

Search our weather history database for the weather conditions in past years. The results will help you decide how hot, cold, wet, or windy it might be!

Date:

Astronomy

Jun. 26, 2013 Rise Set
Actual Time 5:07 AM MDT 9:11 PM MDT
Civil Twilight 4:26 AM MDT 9:52 PM MDT
Nautical Twilight 3:27 AM MDT 10:50 PM MDT
Astronomical Twilight 1:44 AM MDT 12:32 AM MDT
Moon 11:13 PM MDT (6/26) 9:21 AM MDT (6/26)
Length of Visible Light 17h 26m
Length of Day
16h 03m
Waning Gibbous, 85% of the Moon is Illuminated
Jun 26
Waning Gibbous
Jun 29
Last Quarter
Jul 8
New
Jul 15
First Quarter
Jul 22
Full

Hourly Weather History & Observations

Time (MDT) Temp. Dew Point Humidity Pressure Visibility Wind Dir Wind Speed Gust Speed Precip Events Conditions
12:53 AM 63.0 °F 54.0 °F 72% 29.73 in 10.0 mi West 5.8 mph - N/A   Clear
1:53 AM 63.0 °F 55.0 °F 75% 29.73 in 10.0 mi WSW 3.5 mph - N/A   Scattered Clouds
2:53 AM 62.1 °F 55.9 °F 80% 29.74 in 10.0 mi WNW 3.5 mph - N/A   Overcast
3:53 AM 61.0 °F 57.0 °F 87% 29.76 in 10.0 mi Calm Calm - N/A   Overcast
4:53 AM 62.1 °F 54.0 °F 75% 29.76 in 10.0 mi Calm Calm - 0.00 in   Scattered Clouds
5:53 AM 61.0 °F 55.9 °F 83% 29.78 in 10.0 mi WSW 4.6 mph - N/A   Overcast
6:53 AM 62.1 °F 57.0 °F 84% 29.80 in 10.0 mi NW 3.5 mph - N/A   Overcast
7:53 AM 66.9 °F 55.0 °F 66% 29.81 in 10.0 mi WNW 10.4 mph - N/A   Clear
8:53 AM 70.0 °F 54.0 °F 57% 29.82 in 10.0 mi WNW 12.7 mph - N/A   Clear
9:53 AM 72.0 °F 50.0 °F 46% 29.83 in 10.0 mi West 17.3 mph 25.3 mph N/A   Clear
10:53 AM 73.9 °F 51.1 °F 45% 29.82 in 10.0 mi West 19.6 mph 26.5 mph N/A   Clear
11:53 AM 75.0 °F 51.1 °F 43% 29.83 in 10.0 mi West 20.7 mph 31.1 mph N/A   Clear
12:53 PM 75.9 °F 50.0 °F 40% 29.86 in 10.0 mi West 19.6 mph 27.6 mph N/A   Clear
1:53 PM 77.0 °F 51.1 °F 40% 29.86 in 10.0 mi WNW 17.3 mph 28.8 mph N/A   Clear
2:53 PM 77.0 °F 50.0 °F 39% 29.87 in 10.0 mi WNW 19.6 mph 29.9 mph N/A   Clear
3:53 PM 77.0 °F 50.0 °F 39% 29.87 in 10.0 mi West 15.0 mph 25.3 mph N/A   Clear
4:53 PM 78.1 °F 50.0 °F 37% 29.87 in 10.0 mi WNW 16.1 mph - N/A   Clear
5:53 PM 78.1 °F 48.9 °F 36% 29.88 in 10.0 mi WNW 12.7 mph - N/A   Clear
6:53 PM 77.0 °F 48.9 °F 37% 29.88 in 10.0 mi WNW 13.8 mph - N/A   Clear
7:53 PM 73.0 °F 46.0 °F 38% 29.89 in 10.0 mi West 11.5 mph - N/A   Clear
8:53 PM 69.1 °F 48.9 °F 49% 29.91 in 10.0 mi West 8.1 mph - N/A   Clear
9:53 PM 66.0 °F 50.0 °F 56% 29.92 in 10.0 mi West 6.9 mph - N/A   Clear
10:53 PM 64.9 °F 50.0 °F 58% 29.94 in 10.0 mi NNW 3.5 mph - N/A   Clear
11:53 PM 63.0 °F 50.0 °F 63% 29.95 in 10.0 mi NNW 3.5 mph - N/A   Clear